Weather History for KGLD - April, 2013

Change the Weather History Date:

Friday, April 26, 2013

  Actual Average Record
Temperature  
Mean Temperature 57 °F 53 °F  
Max Temperature 76 °F 67 °F 89 °F (1921)
Min Temperature 38 °F 38 °F 23 °F (1953)
Degree Days  
Heating Degree Days 8 13  
Month to date heating degree days 606 432  
Since 1 July heating degree days 5736 5607  
Cooling Degree Days 0 0  
Month to date cooling degree days 0 0  
Year to date cooling degree days 0 0  
Growing Degree Days 7 (Base 50)    
Moisture  
Dew Point 29 °F    
Average Humidity 47    
Maximum Humidity 83    
Minimum Humidity 10    
Precipitation  
Precipitation 0.00 in 0.06 in 0.74 in (1923)
Month to date precipitation 0.79 1.34  
Year to date precipitation 3.09 3.28  
Snow  
Snow 0.00 in 0.10 in - ()
Month to date snowfall 12.7 4.0  
Since 1 July snowfall 55.7 34.8  
Snow Depth 0.00 in    
Sea Level Pressure  
Sea Level Pressure 30.02 in    
Wind  
Wind Speed 13 mph (ENE)    
Max Wind Speed 25 mph    
Max Gust Speed 32 mph    
Visibility 10 miles    
Events      
T = Trace of Precipitation, MM = Missing Value Source: NWS Daily Summary

Daily Weather History Graph

Daily Weather History Graph

Search for Another Location

Airport or City:

Trip Planner

Search our weather history database for the weather conditions in past years. The results will help you decide how hot, cold, wet, or windy it might be!

Date:

Astronomy

Apr. 26, 2013 Rise Set
Actual Time 5:54 AM MDT 7:35 PM MDT
Civil Twilight 5:25 AM MDT 8:04 PM MDT
Nautical Twilight 4:50 AM MDT 8:39 PM MDT
Astronomical Twilight 4:14 AM MDT 9:16 PM MDT
Moon 9:00 PM MDT (4/26) 6:23 AM MDT (4/26)
Length of Visible Light 14h 38m
Length of Day
13h 41m
Full, 99% of the Moon is Illuminated
Apr 26
Full
May 2
Last Quarter
May 9
New
May 17
First Quarter
May 24
Full

Hourly Weather History & Observations

Time (MDT) Temp. Windchill Dew Point Humidity Pressure Visibility Wind Dir Wind Speed Gust Speed Precip Events Conditions
12:53 AM 46.4 °F 40.1 °F 35.6 °F 66% 29.99 in 10.0 mi SSE 15.0 mph - N/A   Clear
1:53 AM 45.0 °F 37.9 °F 34.0 °F 65% 29.92 in 10.0 mi SSE 16.1 mph - N/A   Clear
2:53 AM 44.1 °F 37.4 °F 34.0 °F 68% 29.91 in 10.0 mi South 13.8 mph - N/A   Clear
3:53 AM 42.1 °F 35.7 °F 34.0 °F 73% 29.91 in 10.0 mi South 11.5 mph - N/A   Clear
4:53 AM 41.0 °F 34.7 °F 34.0 °F 76% 29.92 in 10.0 mi South 10.4 mph - N/A   Clear
5:53 AM 42.1 °F 39.2 °F 32.0 °F 67% 29.94 in 10.0 mi SSW 4.6 mph - N/A   Clear
6:53 AM 39.9 °F - 34.0 °F 79% 29.99 in 10.0 mi Calm Calm - N/A   Clear
7:53 AM 46.9 °F - 37.0 °F 68% 30.00 in 10.0 mi North 4.6 mph - N/A   Clear
8:53 AM 55.0 °F - 37.9 °F 53% 30.00 in 10.0 mi North 11.5 mph - N/A   Clear
9:53 AM 63.0 °F - 36.0 °F 37% 29.99 in 10.0 mi NNE 15.0 mph - N/A   Clear
10:53 AM 68.0 °F - 30.9 °F 25% 30.00 in 10.0 mi NNE 19.6 mph 27.6 mph N/A   Clear
11:53 AM 72.0 °F - 21.9 °F 15% 30.00 in 10.0 mi NNE 19.6 mph 32.2 mph N/A   Clear
12:53 PM 73.9 °F - 21.0 °F 14% 30.00 in 10.0 mi NE 18.4 mph 29.9 mph N/A   Clear
1:53 PM 75.0 °F - 21.0 °F 13% 29.99 in 10.0 mi NE 20.7 mph 27.6 mph N/A   Clear
2:53 PM 75.0 °F - 15.1 °F 10% 29.99 in 10.0 mi NE 13.8 mph 25.3 mph N/A   Clear
3:53 PM 75.9 °F - 17.1 °F 11% 30.00 in 10.0 mi NNE 18.4 mph 28.8 mph N/A   Partly Cloudy
4:53 PM 72.0 °F - 15.1 °F 11% 30.01 in 10.0 mi NE 16.1 mph 24.2 mph N/A   Partly Cloudy
5:53 PM 72.0 °F - 18.0 °F 13% 30.04 in 10.0 mi NE 21.9 mph - N/A   Partly Cloudy
6:53 PM 66.9 °F - 19.0 °F 16% 30.06 in 10.0 mi NE 16.1 mph - N/A   Partly Cloudy
7:53 PM 55.9 °F - 24.1 °F 29% 30.09 in 10.0 mi NE 8.1 mph - N/A   Clear
8:53 PM 51.1 °F - 27.0 °F 39% 30.13 in 10.0 mi ENE 6.9 mph - N/A   Clear
9:53 PM 46.9 °F - 30.0 °F 52% 30.14 in 10.0 mi ESE 6.9 mph - N/A   Clear
10:53 PM 45.0 °F 40.6 °F 39.0 °F 80% 30.14 in 10.0 mi South 8.1 mph - N/A   Clear
11:53 PM 44.1 °F 39.0 °F 39.9 °F 85% 30.15 in 10.0 mi South 9.2 mph - N/A   Clear